QPF
0.00 0.01 0.02 0.01 0.01 0.00 0.00 0.00 0.00 0.00 0.00 0.00 0.00 0.00 0.00 0.00 0.00 0.00 0.00 0.00 0.00 0.00 0.00 0.00 0.01 0.01 0.01 0.01 0.02 0.02 0.02 0.01 0.01 0.02 0.02 0.02 0.03 0.04 0.05 0.07 0.07 0.07 0.09
0.00 0.00 0.01 0.01 0.00 0.00 0.00 0.00 0.00 0.00 0.00 0.00 0.00 0.00 0.00 0.00 0.00 0.00 0.00 0.00 0.00 0.00 0.00 0.00 0.00 0.00 0.01 0.02 0.02 0.03 0.02 0.01 0.01 0.02 0.03 0.04 0.04 0.04 0.05 0.06 0.06 0.06 0.07
0.00 0.00 0.01 0.01 0.00 0.00 0.00 0.00 0.00 0.00 0.00 0.00 0.00 0.00 0.00 0.00 0.00 0.00 0.00 0.00 0.00 0.00 0.00 0.00 0.00 0.00 0.01 0.02 0.02 0.02 0.02 0.02 0.02 0.02 0.04 0.05 0.04 0.05 0.06 0.07 0.06 0.06 0.06
0.01 0.00 0.00 0.00 0.00 0.00 0.00 0.00 0.00 0.00 0.00 0.00 0.00 0.00 0.00 0.00 0.00 0.00 0.00 0.00 0.00 0.00 0.00 0.00 0.00 0.00 0.00 0.01 0.02 0.01 0.02 0.03 0.02 0.02 0.03 0.03 0.04 0.05 0.06 0.06 0.06 0.07 0.10
0.00 0.00 0.00 0.00 0.00 0.00 0.00 0.00 0.00 0.00 0.00 0.00 0.00 0.00 0.00 0.00 0.00 0.00 0.00 0.00 0.00 0.00 0.00 0.00 0.00 0.00 0.00 0.00 0.01 0.02 0.02 0.02 0.02 0.02 0.02 0.02 0.03 0.04 0.06 0.06 0.06 0.06 0.09
0.00 0.00 0.00 0.00 0.00 0.00 0.00 0.00 0.00 0.00 0.00 0.00 0.00 0.00 0.00 0.00 0.00 0.00 0.00 0.00 0.00 0.00 0.00 0.00 0.00 0.00 0.00 0.00 0.01 0.02 0.03 0.03 0.02 0.02 0.03 0.03 0.03 0.04 0.05 0.04 0.05 0.06 0.06
0.00 0.00 0.00 0.00 0.00 0.00 0.00 0.00 0.00 0.00 0.00 0.00 0.00 0.00 0.00 0.00 0.00 0.00 0.00 0.00 0.00 0.00 0.00 0.00 0.00 0.00 0.00 0.00 0.00 0.01 0.02 0.02 0.02 0.03 0.02 0.02 0.02 0.02 0.04 0.05 0.03 0.04 0.04
0.00 0.00 0.00 0.00 0.00 0.00 0.00 0.00 0.00 0.00 0.00 0.00 0.00 0.00 0.00 0.00 0.00 0.00 0.00 0.00 0.00 0.00 0.00 0.00 0.00 0.00 0.00 0.00 0.00 0.01 0.01 0.01 0.01 0.01 0.02 0.02 0.01 0.02 0.03 0.04 0.05 0.04 0.03
0.00 0.00 0.00 0.00 0.00 0.00 0.00 0.00 0.00 0.00 0.00 0.00 0.00 0.00 0.00 0.00 0.00 0.00 0.00 0.00 0.00 0.00 0.00 0.00 0.00 0.00 0.00 0.00 0.00 0.01 0.01 0.01 0.02 0.01 0.01 0.01 0.01 0.02 0.03 0.04 0.05 0.05 0.05
0.00 0.00 0.00 0.00 0.00 0.00 0.00 0.00 0.00 0.00 0.00 0.00 0.00 0.00 0.00 0.00 0.00 0.00 0.00 0.00 0.00 0.00 0.00 0.00 0.00 0.00 0.00 0.00 0.00 0.01 0.02 0.03 0.02 0.01 0.02 0.02 0.01 0.01 0.02 0.03 0.03 0.03 0.04
0.00 0.00 0.00 0.00 0.00 0.00 0.00 0.00 0.00 0.00 0.00 0.00 0.00 0.00 0.00 0.00 0.00 0.00 0.00 0.00 0.00 0.00 0.00 0.00 0.00 0.00 0.00 0.00 0.01 0.01 0.01 0.02 0.02 0.01 0.01 0.02 0.01 0.01 0.01 0.02 0.03 0.03 0.03
0.00 0.00 0.00 0.00 0.00 0.00 0.00 0.00 0.00 0.00 0.00 0.00 0.00 0.00 0.00 0.00 0.00 0.00 0.00 0.00 0.00 0.00 0.00 0.00 0.00 0.00 0.00 0.00 0.00 0.01 0.01 0.01 0.02 0.02 0.02 0.02 0.01 0.01 0.01 0.01 0.01 0.02 0.03
0.00 0.00 0.00 0.00 0.00 0.00 0.00 0.00 0.00 0.00 0.00 0.00 0.00 0.00 0.00 0.00 0.00 0.00 0.00 0.00 0.00 0.00 0.00 0.00 0.00 0.00 0.00 0.00 0.00 0.00 0.01 0.00 0.01 0.01 0.01 0.01 0.02 0.02 0.01 0.01 0.01 0.01 0.01
0.00 0.00 0.00 0.00 0.00 0.00 0.00 0.00 0.00 0.00 0.00 0.00 0.00 0.00 0.00 0.00 0.00 0.00 0.00 0.00 0.00 0.00 0.00 0.00 0.00 0.00 0.00 0.00 0.00 0.00 0.01 0.01 0.00 0.00 0.00 0.01 0.01 0.01 0.01 0.01 0.01 0.02 0.03
0.00 0.00 0.00 0.00 0.00 0.00 0.00 0.00 0.00 0.00 0.00 0.00 0.00 0.00 0.00 0.00 0.00 0.00 0.00 0.00 0.00 0.00 0.00 0.00 0.00 0.00 0.00 0.00 0.00 0.00 0.01 0.02 0.01 0.01 0.00 0.00 0.00 0.01 0.01 0.00 0.01 0.01 0.03
0.00 0.00 0.00 0.00 0.00 0.00 0.00 0.00 0.00 0.00 0.00 0.00 0.00 0.00 0.00 0.00 0.00 0.00 0.00 0.00 0.00 0.00 0.00 0.00 0.00 0.00 0.00 0.00 0.00 0.00 0.01 0.01 0.01 0.01 0.01 0.00 0.00 0.00 0.00 0.00 0.01 0.01 0.03
0.00 0.00 0.00 0.00 0.00 0.00 0.00 0.00 0.00 0.00 0.00 0.00 0.00 0.00 0.00 0.00 0.00 0.00 0.00 0.00 0.00 0.00 0.00 0.00 0.00 0.00 0.00 0.00 0.00 0.00 0.01 0.01 0.01 0.01 0.01 0.01 0.01 0.01 0.01 0.01 0.01 0.01 0.02
0.00 0.00 0.00 0.00 0.00 0.00 0.00 0.00 0.00 0.00 0.00 0.00 0.00 0.00 0.00 0.00 0.00 0.00 0.00 0.00 0.00 0.00 0.00 0.00 0.00 0.00 0.00 0.00 0.00 0.00 0.00 0.01 0.01 0.01 0.01 0.01 0.01 0.01 0.02 0.02 0.02 0.02 0.01
0.00 0.00 0.00 0.00 0.00 0.00 0.00 0.00 0.00 0.00 0.00 0.00 0.00 0.00 0.00 0.00 0.00 0.00 0.00 0.00 0.00 0.00 0.00 0.00 0.00 0.00 0.00 0.00 0.00 0.00 0.00 0.00 0.00 0.00 0.00 0.00 0.01 0.01 0.00 0.02 0.03 0.03 0.02
0.00 0.00 0.00 0.00 0.00 0.00 0.00 0.00 0.00 0.00 0.00 0.00 0.00 0.00 0.00 0.00 0.00 0.00 0.00 0.00 0.00 0.00 0.00 0.00 0.00 0.00 0.00 0.00 0.00 0.00 0.00 0.00 0.00 0.00 0.00 0.00 0.00 0.00 0.00 0.01 0.02 0.02 0.02
0.00 0.00 0.00 0.00 0.00 0.00 0.00 0.00 0.00 0.00 0.00 0.00 0.00 0.00 0.00 0.00 0.00 0.00 0.00 0.00 0.00 0.00 0.00 0.00 0.00 0.00 0.00 0.00 0.00 0.01 0.00 0.00 0.00 0.00 0.00 0.00 0.00 0.00 0.01 0.01 0.01 0.02 0.02
0.00 0.00 0.00 0.00 0.00 0.00 0.00 0.00 0.00 0.00 0.00 0.00 0.00 0.00 0.00 0.00 0.00 0.00 0.00 0.00 0.00 0.00 0.00 0.00 0.00 0.00 0.00 0.00 0.00 0.01 0.01 0.00 0.00 0.00 0.01 0.00 0.00 0.00 0.01 0.01 0.01 0.01 0.02
0.00 0.00 0.00 0.00 0.00 0.00 0.00 0.00 0.00 0.00 0.00 0.00 0.00 0.00 0.00 0.00 0.00 0.00 0.00 0.00 0.00 0.00 0.00 0.00 0.00 0.00 0.00 0.00 0.00 0.00 0.01 0.01 0.00 0.00 0.01 0.01 0.01 0.01 0.01 0.01 0.01 0.01 0.02
0.00 0.00 0.00 0.00 0.00 0.00 0.00 0.00 0.00 0.00 0.00 0.00 0.00 0.00 0.00 0.00 0.00 0.00 0.00 0.00 0.00 0.00 0.00 0.00 0.00 0.00 0.00 0.00 0.00 0.00 0.01 0.01 0.01 0.00 0.01 0.01 0.01 0.01 0.01 0.01 0.01 0.01 0.01
0.00 0.00 0.00 0.00 0.00 0.00 0.00 0.00 0.00 0.00 0.00 0.00 0.00 0.00 0.00 0.00 0.00 0.00 0.00 0.00 0.00 0.00 0.00 0.00 0.00 0.00 0.00 0.00 0.01 0.01 0.01 0.01 0.01 0.01 0.00 0.00 0.00 0.00 0.00 0.01 0.01 0.00 0.00
0.00 0.00 0.00 0.00 0.00 0.00 0.00 0.00 0.00 0.00 0.00 0.00 0.00 0.00 0.00 0.00 0.00 0.00 0.00 0.00 0.00 0.00 0.00 0.00 0.01 0.01 0.01 0.01 0.01 0.01 0.01 0.01 0.01 0.01 0.00 0.00 0.00 0.00 0.00 0.01 0.00 0.00 0.00
MSLP
1011.58 1011.78 1012.04 1012.34 1012.66 1012.97 1013.28 1013.56 1013.83 1014.08 1014.30 1014.48 1014.64 1014.74 1014.80 1014.80 1014.76 1014.69 1014.59 1014.46 1014.32 1014.16 1013.98 1013.75 1013.49 1013.18 1012.85 1012.50 1012.17 1011.88 1011.67 1011.56 1011.55 1011.64 1011.79 1011.97 1012.14 1012.24 1012.24 1012.12 1011.90 1011.59 1011.26
1011.41 1011.61 1011.90 1012.23 1012.58 1012.92 1013.24 1013.54 1013.81 1014.06 1014.28 1014.48 1014.65 1014.77 1014.85 1014.88 1014.85 1014.79 1014.69 1014.57 1014.43 1014.28 1014.10 1013.88 1013.63 1013.33 1013.00 1012.65 1012.30 1011.99 1011.75 1011.61 1011.58 1011.65 1011.80 1012.00 1012.19 1012.34 1012.38 1012.29 1012.08 1011.76 1011.38
1011.30 1011.51 1011.80 1012.15 1012.51 1012.87 1013.19 1013.49 1013.75 1014.00 1014.23 1014.44 1014.62 1014.77 1014.87 1014.91 1014.91 1014.85 1014.76 1014.64 1014.50 1014.35 1014.18 1013.98 1013.75 1013.47 1013.15 1012.81 1012.45 1012.12 1011.84 1011.66 1011.58 1011.62 1011.76 1011.96 1012.18 1012.35 1012.44 1012.40 1012.23 1011.93 1011.55
1011.30 1011.50 1011.79 1012.13 1012.48 1012.82 1013.13 1013.41 1013.67 1013.91 1014.14 1014.36 1014.56 1014.73 1014.85 1014.92 1014.92 1014.88 1014.79 1014.67 1014.54 1014.39 1014.23 1014.05 1013.85 1013.60 1013.31 1012.98 1012.62 1012.27 1011.97 1011.74 1011.61 1011.60 1011.70 1011.88 1012.10 1012.30 1012.43 1012.45 1012.33 1012.08 1011.73
1011.46 1011.62 1011.88 1012.19 1012.51 1012.81 1013.08 1013.33 1013.56 1013.78 1014.00 1014.23 1014.44 1014.63 1014.78 1014.87 1014.89 1014.86 1014.77 1014.66 1014.52 1014.38 1014.24 1014.09 1013.92 1013.71 1013.46 1013.15 1012.81 1012.46 1012.12 1011.84 1011.66 1011.58 1011.63 1011.77 1011.97 1012.18 1012.35 1012.42 1012.37 1012.19 1011.90
1011.79 1011.92 1012.12 1012.37 1012.63 1012.86 1013.07 1013.25 1013.43 1013.62 1013.82 1014.04 1014.27 1014.47 1014.64 1014.75 1014.79 1014.77 1014.69 1014.57 1014.44 1014.31 1014.18 1014.06 1013.93 1013.77 1013.56 1013.30 1012.99 1012.64 1012.29 1011.97 1011.73 1011.59 1011.56 1011.64 1011.80 1012.01 1012.19 1012.32 1012.34 1012.23 1012.02
1012.30 1012.37 1012.51 1012.68 1012.84 1012.98 1013.10 1013.20 1013.31 1013.44 1013.61 1013.80 1014.02 1014.23 1014.42 1014.54 1014.60 1014.59 1014.51 1014.40 1014.27 1014.14 1014.04 1013.94 1013.85 1013.74 1013.59 1013.39 1013.12 1012.79 1012.44 1012.10 1011.81 1011.60 1011.50 1011.51 1011.62 1011.79 1011.98 1012.13 1012.21 1012.19 1012.06
1012.95 1012.96 1013.02 1013.10 1013.15 1013.18 1013.19 1013.19 1013.21 1013.26 1013.37 1013.53 1013.72 1013.93 1014.11 1014.24 1014.30 1014.30 1014.22 1014.11 1013.99 1013.87 1013.78 1013.72 1013.67 1013.61 1013.52 1013.38 1013.17 1012.88 1012.55 1012.20 1011.87 1011.61 1011.44 1011.38 1011.43 1011.55 1011.72 1011.89 1012.01 1012.05 1012.00
1013.69 1013.65 1013.63 1013.61 1013.55 1013.47 1013.35 1013.24 1013.16 1013.12 1013.15 1013.25 1013.40 1013.58 1013.74 1013.86 1013.92 1013.91 1013.83 1013.72 1013.60 1013.49 1013.42 1013.38 1013.37 1013.37 1013.34 1013.26 1013.11 1012.88 1012.58 1012.25 1011.91 1011.61 1011.39 1011.27 1011.25 1011.32 1011.46 1011.62 1011.76 1011.85 1011.86
1014.46 1014.37 1014.29 1014.17 1014.02 1013.83 1013.60 1013.38 1013.19 1013.06 1013.01 1013.03 1013.12 1013.24 1013.36 1013.45 1013.49 1013.46 1013.38 1013.26 1013.14 1013.03 1012.97 1012.95 1012.98 1013.02 1013.05 1013.04 1012.95 1012.79 1012.54 1012.23 1011.91 1011.60 1011.35 1011.18 1011.11 1011.13 1011.22 1011.36 1011.50 1011.61 1011.67
1015.18 1015.07 1014.94 1014.76 1014.53 1014.25 1013.94 1013.63 1013.35 1013.13 1012.99 1012.93 1012.94 1012.99 1013.05 1013.09 1013.09 1013.03 1012.93 1012.79 1012.66 1012.55 1012.49 1012.49 1012.53 1012.61 1012.68 1012.72 1012.70 1012.60 1012.41 1012.16 1011.87 1011.57 1011.32 1011.12 1011.01 1010.99 1011.05 1011.15 1011.27 1011.38 1011.46
1015.81 1015.70 1015.54 1015.32 1015.05 1014.72 1014.36 1013.99 1013.65 1013.37 1013.15 1013.01 1012.94 1012.91 1012.89 1012.86 1012.79 1012.69 1012.55 1012.38 1012.23 1012.11 1012.04 1012.03 1012.08 1012.17 1012.27 1012.35 1012.37 1012.33 1012.21 1012.01 1011.77 1011.52 1011.28 1011.09 1010.97 1010.92 1010.94 1011.01 1011.10 1011.20 1011.28
1016.32 1016.21 1016.06 1015.84 1015.55 1015.22 1014.85 1014.46 1014.10 1013.77 1013.50 1013.30 1013.14 1013.02 1012.92 1012.81 1012.67 1012.50 1012.30 1012.10 1011.91 1011.76 1011.66 1011.63 1011.66 1011.74 1011.84 1011.93 1011.98 1011.98 1011.92 1011.78 1011.60 1011.41 1011.21 1011.05 1010.94 1010.89 1010.89 1010.93 1011.00 1011.07 1011.13
1016.68 1016.60 1016.47 1016.27 1016.02 1015.71 1015.37 1015.01 1014.65 1014.32 1014.02 1013.77 1013.55 1013.35 1013.16 1012.96 1012.74 1012.49 1012.23 1011.97 1011.73 1011.53 1011.38 1011.30 1011.29 1011.33 1011.40 1011.48 1011.53 1011.55 1011.52 1011.44 1011.33 1011.20 1011.07 1010.95 1010.88 1010.84 1010.85 1010.88 1010.93 1010.98 1011.02
1016.90 1016.86 1016.77 1016.62 1016.41 1016.17 1015.88 1015.57 1015.26 1014.95 1014.65 1014.37 1014.11 1013.84 1013.57 1013.28 1012.98 1012.65 1012.32 1011.99 1011.68 1011.41 1011.20 1011.06 1010.97 1010.94 1010.95 1010.98 1011.01 1011.02 1011.01 1010.97 1010.91 1010.85 1010.79 1010.74 1010.72 1010.73 1010.76 1010.80 1010.85 1010.89 1010.92
1017.01 1017.01 1016.96 1016.87 1016.73 1016.55 1016.34 1016.10 1015.85 1015.58 1015.31 1015.02 1014.72 1014.41 1014.07 1013.71 1013.32 1012.92 1012.51 1012.11 1011.73 1011.39 1011.10 1010.86 1010.69 1010.57 1010.49 1010.45 1010.42 1010.40 1010.37 1010.35 1010.34 1010.33 1010.34 1010.37 1010.42 1010.48 1010.56 1010.64 1010.70 1010.75 1010.78
1017.03 1017.08 1017.07 1017.03 1016.95 1016.84 1016.70 1016.53 1016.34 1016.13 1015.88 1015.60 1015.29 1014.94 1014.56 1014.14 1013.69 1013.22 1012.75 1012.27 1011.82 1011.40 1011.02 1010.70 1010.42 1010.19 1010.01 1009.87 1009.76 1009.68 1009.63 1009.60 1009.61 1009.65 1009.71 1009.81 1009.93 1010.07 1010.20 1010.33 1010.44 1010.52 1010.56
1017.02 1017.10 1017.13 1017.12 1017.08 1017.02 1016.93 1016.83 1016.69 1016.51 1016.30 1016.03 1015.72 1015.35 1014.94 1014.48 1013.99 1013.47 1012.94 1012.42 1011.90 1011.41 1010.95 1010.54 1010.16 1009.83 1009.54 1009.29 1009.09 1008.93 1008.83 1008.77 1008.77 1008.83 1008.94 1009.09 1009.27 1009.47 1009.67 1009.86 1010.02 1010.15 1010.24
1017.01 1017.11 1017.16 1017.17 1017.14 1017.10 1017.04 1016.96 1016.85 1016.70 1016.50 1016.25 1015.94 1015.57 1015.14 1014.66 1014.15 1013.60 1013.05 1012.48 1011.93 1011.39 1010.87 1010.38 1009.91 1009.49 1009.10 1008.75 1008.45 1008.21 1008.04 1007.93 1007.91 1007.95 1008.07 1008.25 1008.47 1008.72 1008.98 1009.22 1009.45 1009.63 1009.78
1017.02 1017.13 1017.18 1017.18 1017.15 1017.10 1017.03 1016.95 1016.83 1016.69 1016.49 1016.25 1015.94 1015.57 1015.14 1014.66 1014.14 1013.59 1013.03 1012.46 1011.88 1011.32 1010.76 1010.22 1009.70 1009.20 1008.73 1008.30 1007.92 1007.59 1007.34 1007.17 1007.09 1007.10 1007.20 1007.37 1007.60 1007.87 1008.16 1008.45 1008.73 1008.98 1009.19
1017.05 1017.17 1017.20 1017.18 1017.12 1017.03 1016.93 1016.82 1016.68 1016.52 1016.31 1016.06 1015.75 1015.38 1014.96 1014.49 1013.98 1013.45 1012.89 1012.33 1011.76 1011.20 1010.64 1010.08 1009.53 1008.99 1008.46 1007.97 1007.52 1007.12 1006.79 1006.55 1006.39 1006.34 1006.38 1006.51 1006.71 1006.97 1007.26 1007.58 1007.89 1008.19 1008.47
1017.08 1017.19 1017.21 1017.15 1017.05 1016.92 1016.77 1016.61 1016.43 1016.23 1016.01 1015.74 1015.42 1015.05 1014.64 1014.19 1013.70 1013.18 1012.66 1012.12 1011.58 1011.03 1010.49 1009.94 1009.39 1008.83 1008.29 1007.76 1007.25 1006.79 1006.39 1006.06 1005.83 1005.68 1005.64 1005.69 1005.82 1006.03 1006.30 1006.61 1006.94 1007.28 1007.62
1017.07 1017.17 1017.17 1017.08 1016.93 1016.76 1016.56 1016.35 1016.13 1015.90 1015.64 1015.35 1015.02 1014.65 1014.24 1013.80 1013.33 1012.84 1012.34 1011.83 1011.32 1010.80 1010.29 1009.76 1009.23 1008.69 1008.15 1007.60 1007.07 1006.56 1006.10 1005.69 1005.36 1005.11 1004.96 1004.90 1004.94 1005.07 1005.29 1005.56 1005.89 1006.25 1006.64
1016.97 1017.06 1017.04 1016.93 1016.75 1016.54 1016.31 1016.06 1015.81 1015.54 1015.25 1014.94 1014.60 1014.22 1013.81 1013.37 1012.90 1012.42 1011.94 1011.45 1010.96 1010.48 1009.99 1009.50 1009.00 1008.49 1007.96 1007.42 1006.88 1006.33 1005.82 1005.33 1004.91 1004.55 1004.28 1004.10 1004.03 1004.06 1004.19 1004.41 1004.72 1005.09 1005.51
1016.75 1016.83 1016.79 1016.67 1016.48 1016.25 1016.00 1015.74 1015.46 1015.17 1014.86 1014.53 1014.17 1013.78 1013.35 1012.90 1012.43 1011.94 1011.45 1010.96 1010.48 1010.02 1009.55 1009.09 1008.62 1008.13 1007.63 1007.10 1006.56 1006.00 1005.44 1004.89 1004.38 1003.92 1003.53 1003.23 1003.03 1002.95 1002.99 1003.15 1003.42 1003.78 1004.23
1016.37 1016.44 1016.41 1016.29 1016.11 1015.88 1015.63 1015.37 1015.09 1014.79 1014.47 1014.12 1013.74 1013.33 1012.87 1012.39 1011.89 1011.37 1010.85 1010.34 1009.85 1009.37 1008.91 1008.46 1008.01 1007.55 1007.07 1006.56 1006.02 1005.46 1004.87 1004.28 1003.69 1003.14 1002.65 1002.23 1001.92 1001.73 1001.68 1001.76 1001.98 1002.34 1002.81
Thickness
5762 5762 5760 5758 5756 5754 5752 5748 5745 5742 5738 5734 5731 5728 5726 5724 5722 5719 5715 5711 5709 5706 5705 5703 5701 5698 5697 5694 5694 5693 5691 5691 5693 5692 5693 5696 5699 5700 5702 5705 5709 5712 5716
5760 5758 5757 5756 5755 5753 5750 5748 5745 5742 5738 5733 5731 5728 5725 5723 5721 5717 5713 5710 5708 5705 5703 5701 5699 5697 5693 5692 5691 5688 5687 5687 5689 5688 5687 5687 5691 5693 5698 5700 5703 5708 5712
5759 5758 5756 5755 5753 5751 5749 5747 5744 5741 5737 5733 5730 5726 5723 5721 5719 5715 5713 5709 5706 5703 5700 5699 5697 5695 5693 5690 5688 5686 5683 5683 5685 5686 5684 5682 5684 5687 5692 5696 5699 5702 5706
5758 5756 5755 5753 5752 5751 5750 5747 5744 5741 5737 5733 5729 5726 5721 5719 5717 5715 5712 5709 5706 5703 5700 5697 5695 5694 5692 5689 5688 5686 5683 5680 5681 5683 5683 5684 5685 5683 5685 5690 5695 5699 5702
5758 5756 5755 5754 5753 5751 5748 5746 5743 5740 5736 5733 5728 5725 5722 5720 5718 5714 5711 5709 5706 5703 5700 5697 5695 5693 5691 5689 5686 5684 5682 5680 5679 5679 5680 5681 5682 5685 5684 5684 5688 5693 5698
5757 5756 5755 5753 5751 5749 5745 5743 5740 5737 5734 5730 5728 5725 5721 5718 5714 5712 5710 5708 5706 5704 5701 5697 5696 5694 5691 5689 5686 5683 5681 5679 5677 5678 5678 5678 5679 5681 5683 5683 5685 5688 5693
5755 5754 5751 5749 5747 5745 5743 5741 5738 5735 5732 5729 5727 5725 5722 5718 5715 5712 5710 5707 5706 5704 5701 5698 5696 5693 5691 5688 5685 5683 5681 5679 5676 5676 5677 5678 5679 5681 5682 5682 5684 5686 5690
5753 5752 5750 5748 5746 5744 5742 5740 5737 5734 5731 5729 5727 5725 5722 5718 5716 5713 5710 5708 5706 5704 5701 5698 5696 5693 5690 5688 5685 5683 5681 5680 5678 5676 5676 5676 5677 5679 5680 5681 5681 5682 5686
5749 5749 5748 5747 5745 5743 5742 5739 5736 5734 5731 5729 5726 5724 5722 5718 5716 5713 5711 5709 5707 5704 5701 5699 5697 5693 5690 5688 5686 5683 5682 5680 5678 5677 5676 5675 5677 5677 5679 5680 5681 5680 5681
5747 5747 5746 5745 5744 5743 5741 5739 5736 5734 5731 5728 5726 5723 5721 5718 5715 5713 5710 5708 5707 5704 5701 5700 5697 5694 5691 5688 5686 5683 5681 5679 5677 5675 5675 5675 5676 5677 5677 5678 5680 5681 5681
5742 5743 5743 5743 5742 5741 5739 5737 5735 5732 5730 5728 5725 5722 5720 5717 5715 5712 5710 5708 5706 5704 5702 5699 5697 5695 5692 5689 5686 5684 5681 5679 5678 5677 5676 5675 5675 5676 5676 5677 5678 5679 5680
5738 5738 5738 5738 5737 5736 5736 5735 5734 5731 5729 5727 5724 5722 5720 5717 5714 5713 5710 5709 5706 5704 5702 5700 5697 5695 5692 5690 5687 5684 5682 5680 5678 5677 5676 5675 5675 5674 5676 5676 5676 5677 5678
5734 5735 5734 5734 5733 5733 5732 5732 5731 5730 5728 5725 5723 5720 5719 5716 5714 5712 5710 5708 5707 5704 5702 5700 5697 5695 5692 5690 5687 5685 5683 5682 5680 5678 5677 5676 5676 5675 5675 5675 5675 5676 5677
5730 5730 5729 5729 5729 5729 5729 5729 5728 5727 5725 5723 5720 5719 5718 5716 5714 5712 5709 5707 5706 5704 5702 5700 5697 5695 5692 5690 5688 5686 5684 5683 5681 5679 5678 5677 5676 5675 5675 5675 5675 5675 5675
5726 5726 5726 5726 5726 5726 5726 5726 5725 5724 5723 5720 5718 5717 5717 5715 5712 5710 5707 5706 5703 5702 5700 5698 5696 5694 5692 5690 5688 5686 5684 5683 5681 5680 5679 5678 5675 5674 5673 5674 5674 5674 5673
5721 5722 5723 5723 5723 5723 5723 5723 5721 5721 5720 5717 5715 5714 5713 5711 5709 5707 5705 5703 5701 5700 5698 5696 5694 5692 5691 5687 5683 5682 5683 5683 5682 5680 5679 5678 5675 5672 5670 5669 5669 5670 5672
5717 5718 5719 5719 5719 5720 5720 5718 5718 5717 5715 5714 5712 5710 5708 5706 5705 5704 5702 5699 5698 5697 5695 5693 5692 5691 5690 5685 5682 5679 5680 5681 5681 5680 5679 5677 5676 5673 5673 5670 5667 5667 5667
5713 5714 5715 5715 5716 5716 5716 5715 5714 5712 5710 5708 5707 5705 5703 5701 5700 5699 5697 5696 5696 5695 5692 5691 5690 5688 5687 5683 5680 5678 5678 5680 5680 5678 5677 5676 5675 5673 5672 5671 5670 5670 5669
5709 5709 5710 5711 5711 5710 5710 5709 5708 5706 5704 5702 5701 5700 5699 5696 5695 5693 5692 5692 5691 5690 5689 5688 5686 5685 5684 5680 5677 5674 5677 5677 5677 5677 5675 5674 5674 5670 5666 5667 5668 5667 5667
5703 5703 5704 5704 5703 5703 5703 5702 5701 5699 5697 5696 5695 5695 5693 5691 5689 5688 5688 5687 5686 5684 5684 5683 5683 5682 5681 5678 5674 5670 5674 5674 5674 5674 5673 5668 5668 5665 5663 5664 5665 5664 5664
5695 5695 5695 5695 5694 5695 5695 5694 5693 5692 5691 5689 5688 5687 5686 5684 5683 5682 5681 5680 5680 5679 5678 5677 5677 5677 5676 5674 5669 5666 5668 5669 5669 5669 5669 5668 5662 5660 5658 5658 5661 5660 5660
5687 5687 5687 5686 5686 5686 5685 5685 5683 5683 5683 5681 5680 5679 5678 5677 5676 5674 5673 5673 5672 5671 5671 5671 5671 5671 5670 5667 5665 5661 5660 5661 5662 5663 5664 5663 5657 5654 5653 5653 5653 5652 5651
5679 5678 5677 5677 5677 5677 5675 5674 5674 5674 5673 5672 5671 5670 5670 5669 5667 5666 5665 5664 5663 5663 5664 5663 5663 5664 5664 5662 5658 5655 5654 5652 5653 5657 5655 5653 5650 5648 5647 5646 5645 5645 5646
5670 5669 5669 5668 5667 5667 5665 5664 5664 5664 5663 5663 5662 5661 5661 5659 5658 5655 5655 5654 5653 5653 5653 5653 5653 5654 5655 5654 5652 5650 5647 5644 5644 5645 5645 5642 5641 5640 5641 5641 5641 5642 5643
5661 5660 5658 5657 5656 5657 5656 5654 5654 5653 5653 5653 5652 5651 5650 5648 5646 5645 5644 5643 5643 5642 5639 5641 5642 5642 5644 5645 5641 5640 5640 5641 5640 5639 5638 5637 5637 5636 5637 5638 5639 5638 5638
5651 5649 5648 5646 5646 5645 5644 5643 5642 5641 5641 5641 5640 5638 5637 5636 5634 5633 5633 5631 5629 5628 5627 5627 5627 5631 5630 5630 5628 5626 5627 5627 5627 5626 5630 5632 5633 5633 5633 5633 5633 5633 5633